Theta_e
346 339 340 345 346 346 345 344 345 346 346 346 347 348 349 349 350 351 351 351 351 351 351 351 352 353 353 353 353 353 352 351 350 350 350 350 350 350 349 351 353 352 352 353 352 353 354 355 355 355 356 356 355 354 354 354 355 354 354 354 354 355 354
348 341 339 343 346 347 345 344 345 346 345 347 347 348 349 349 350 351 351 351 352 352 351 351 351 351 352 352 352 353 352 351 350 349 349 350 350 350 350 352 352 351 352 353 353 353 353 354 354 354 356 356 355 355 355 355 355 355 355 355 354 355 355
350 344 340 342 345 347 345 344 345 345 345 346 347 348 349 349 350 350 351 351 351 352 351 351 350 350 351 352 353 353 352 352 352 351 350 349 350 350 351 352 352 351 352 352 353 353 353 354 354 354 354 355 354 354 355 355 354 355 356 356 355 354 354
352 347 342 341 344 345 344 344 344 345 346 346 346 348 348 349 350 350 351 351 351 352 352 351 350 350 351 352 353 353 353 352 353 352 351 350 351 351 352 352 352 351 352 351 352 352 353 354 354 353 354 353 354 354 354 354 354 354 355 355 354 353 354
352 350 345 341 343 345 344 344 344 345 346 346 346 347 348 349 350 350 351 351 351 351 351 350 350 351 352 353 353 353 353 353 353 353 353 352 353 352 353 353 352 351 351 351 352 353 354 354 354 354 353 353 353 353 354 354 354 353 354 355 354 354 354
351 351 349 343 342 344 344 343 344 345 345 346 346 347 348 348 349 351 351 351 351 351 351 351 351 352 353 353 353 353 353 353 353 353 353 353 353 353 353 353 353 352 352 353 354 354 354 355 354 354 353 353 353 353 353 353 353 354 354 356 355 355 355
351 351 350 346 342 343 343 342 344 345 345 346 346 346 347 348 348 350 351 351 352 352 351 352 352 353 353 353 353 354 354 354 353 353 353 353 352 352 352 352 353 353 354 354 354 354 355 355 354 354 353 353 353 354 353 353 354 354 355 356 356 356 356
351 351 351 347 343 341 341 341 343 345 346 346 346 347 347 348 348 349 351 351 352 352 352 352 353 353 353 354 354 354 354 354 354 353 353 353 352 352 352 352 353 353 354 354 353 354 354 354 354 353 353 353 353 353 354 354 354 355 355 356 356 356 356
353 351 351 349 346 342 339 339 341 344 345 346 346 347 347 348 348 349 350 351 352 352 352 352 353 353 353 354 354 354 354 354 354 353 354 354 353 353 353 353 353 353 353 354 353 354 355 354 354 353 353 353 352 353 353 354 354 355 355 355 355 356 356
358 355 353 352 350 345 340 338 341 343 344 345 346 346 347 348 349 350 350 351 351 352 352 353 353 353 354 354 354 354 355 354 353 353 354 355 355 354 354 353 352 352 353 353 354 354 354 354 354 353 353 353 353 352 353 353 353 354 354 354 355 356 356
359 358 357 355 354 351 347 344 343 343 344 345 345 346 347 348 349 350 351 351 352 352 353 353 353 354 354 354 354 355 355 354 354 353 354 355 355 354 354 353 352 352 353 353 353 354 354 354 354 354 354 354 353 353 352 352 352 353 354 354 355 355 355
357 357 356 355 354 351 350 348 345 344 344 345 345 347 348 349 350 351 351 352 352 352 353 354 354 354 354 354 355 355 355 355 354 353 353 354 354 354 354 354 352 352 353 353 354 354 355 355 355 355 355 354 353 353 352 352 352 352 353 354 354 355 355
355 354 353 353 353 351 350 350 347 345 345 346 346 346 348 349 350 351 351 352 353 353 353 354 354 354 354 355 355 355 355 355 355 354 353 353 352 352 353 353 352 352 352 353 354 354 355 355 355 355 354 354 353 352 352 352 352 352 352 352 353 354 354
355 354 352 352 353 352 352 351 349 346 346 347 347 347 348 349 350 351 352 353 353 353 353 354 354 355 355 355 355 355 355 355 355 354 354 352 351 351 352 352 353 353 353 352 353 354 354 354 354 353 353 353 352 352 351 351 352 352 352 352 352 353 353
355 354 353 353 353 353 354 354 351 348 347 347 347 347 348 349 350 351 352 352 353 353 354 354 354 355 355 355 355 355 355 355 355 355 354 353 352 351 352 352 353 354 353 353 353 354 354 354 353 352 351 351 351 351 351 351 351 351 351 352 352 352 353
353 352 352 353 353 353 355 355 351 348 348 348 347 348 349 349 350 351 352 353 353 354 354 354 355 355 355 355 355 355 355 355 355 355 355 354 353 353 354 355 355 354 354 354 354 354 354 352 351 351 349 349 350 350 350 350 351 351 350 350 351 352 353
352 353 353 353 353 353 353 353 350 348 348 348 348 348 349 349 350 351 352 353 353 354 354 355 355 355 355 355 355 356 355 355 356 356 355 355 355 354 355 356 356 355 354 354 355 355 353 351 350 350 349 350 349 349 350 349 349 349 348 348 350 351 352
354 354 354 353 352 353 353 353 350 348 348 348 348 349 349 349 350 350 352 352 353 354 354 354 355 355 355 354 354 355 356 356 356 355 355 356 356 355 356 356 356 356 355 355 355 353 351 351 350 350 349 349 349 348 349 348 348 347 348 348 350 352 353
354 354 354 353 352 352 351 350 349 348 347 348 348 349 349 350 350 350 351 351 352 352 352 352 353 353 353 352 351 353 355 354 355 354 354 354 354 354 354 354 355 355 354 354 353 351 351 351 352 352 351 351 350 350 349 349 348 348 349 350 352 353 354
350 350 349 348 348 348 346 345 346 346 347 347 347 348 348 349 349 349 349 350 349 350 350 351 351 350 349 350 349 350 352 352 353 353 352 353 353 353 354 354 354 355 354 353 351 350 350 350 351 353 353 352 352 351 351 350 350 350 349 351 353 354 354
345 344 343 343 343 343 342 341 343 344 345 346 346 346 347 347 348 348 348 347 347 348 348 349 349 348 348 349 349 349 350 351 351 351 351 352 352 352 353 354 352 350 351 351 350 350 350 350 350 352 352 352 351 351 352 351 350 350 350 350 351 353 353
341 340 340 340 339 339 339 339 340 341 342 344 345 346 346 347 347 346 347 347 347 347 347 347 347 347 347 348 349 350 350 350 350 351 351 352 352 352 352 352 348 346 349 350 348 347 349 350 350 350 351 351 349 348 349 351 351 350 349 349 349 349 349
338 337 337 337 336 336 336 337 338 338 339 341 342 344 345 346 346 346 346 346 346 346 347 346 346 346 346 347 349 350 350 350 349 349 349 349 350 351 349 349 349 348 350 350 346 345 347 348 348 349 350 350 348 346 347 350 350 349 349 348 348 348 348
336 335 335 334 334 334 334 335 335 336 337 338 338 340 342 342 343 344 344 344 345 345 345 344 344 345 346 347 348 348 348 348 348 347 347 348 348 347 345 347 349 348 348 347 345 345 347 347 346 346 347 348 347 347 347 348 348 348 348 348 349 348 348
334 333 332 332 331 331 332 333 333 334 335 335 335 337 339 339 339 339 338 338 340 342 342 342 343 344 345 345 346 346 346 346 346 346 346 347 346 344 344 345 346 346 345 344 344 344 345 344 344 344 344 345 345 344 345 345 345 344 345 346 347 346 347
333 332 331 331 330 330 331 332 332 332 332 332 333 336 336 337 336 334 333 334 335 335 335 335 337 340 341 341 341 341 341 341 342 342 343 344 343 343 343 343 343 343 343 342 342 342 342 342 342 341 341 340 340 340 340 339 339 339 339 339 340 340 340
331 330 330 330 329 328 329 329 329 329 329 330 333 334 335 335 333 331 331 332 332 331 331 332 334 335 336 336 337 337 338 339 340 340 339 338 339 339 339 339 341 341 341 340 340 340 340 339 339 339 337 336 336 336 334 333 332 332 331 331 332 334 334
329 329 328 328 327 326 326 326 326 327 327 328 330 332 334 334 331 328 329 329 328 328 330 331 331 331 332 333 334 335 337 338 338 337 336 335 335 336 337 338 340 341 340 338 338 338 337 337 335 335 333 332 332 331 330 329 327 326 325 325 326 327 327
328 327 327 327 326 325 325 325 326 326 325 326 327 327 330 330 327 326 326 326 325 327 329 328 327 328 329 330 331 332 334 334 334 333 333 334 334 335 337 338 339 338 336 335 335 336 335 334 333 331 330 330 329 328 327 326 326 326 326 325 324 321 320
326 326 326 326 325 325 326 326 326 326 326 325 325 325 326 327 325 325 325 324 325 326 326 325 324 325 325 326 327 329 329 329 329 328 329 330 331 333 335 336 338 337 334 332 332 332 331 331 330 329 328 328 327 326 326 326 326 327 326 323 320 315 313
325 325 326 325 325 326 326 325 325 325 325 325 325 325 325 325 325 325 325 324 324 323 323 323 322 321 321 322 323 323 323 323 322 322 323 325 326 328 331 333 335 336 334 332 332 331 330 329 328 328 327 326 326 326 326 325 326 326 321 316 314 312 310
325 326 326 325 325 326 326 325 324 325 325 325 325 325 325 325 325 325 324 323 322 322 322 322 321 321 321 321 322 321 321 321 320 320 320 320 321 322 325 328 331 334 335 334 333 331 330 329 327 327 327 326 326 326 325 325 326 324 319 314 314 315 312
324 325 326 326 326 326 326 325 325 325 325 325 325 325 325 325 324 324 324 323 322 322 322 321 320 320 320 320 321 321 322 322 322 321 321 321 321 321 321 322 325 329 332 334 333 332 332 332 330 328 327 328 328 327 326 325 324 321 317 315 315 314 311
323 325 326 326 326 326 326 325 325 325 324 324 324 324 324 324 324 324 324 324 323 322 321 320 320 320 320 320 320 321 322 322 321 321 321 321 322 322 321 319 319 320 324 328 331 332 334 334 333 330 328 328 329 328 326 323 320 318 316 314 312 309 307
323 324 324 324 325 325 324 324 324 323 323 323 323 322 323 324 324 324 324 323 323 323 322 321 322 322 320 320 320 320 320 320 320 320 320 321 321 320 319 317 316 315 315 317 322 327 330 332 332 332 330 330 329 326 323 320 317 315 312 310 308 307 306
324 323 323 323 324 324 323 322 322 323 324 324 323 323 323 323 322 321 320 319 321 323 322 321 322 322 321 319 319 319 319 319 320 320 321 321 319 317 316 316 317 317 314 311 311 314 320 325 328 328 327 325 322 319 316 314 312 310 308 307 307 307 307
324 323 323 324 324 324 323 322 322 323 325 326 324 323 323 322 321 321 319 318 319 321 322 322 322 321 320 320 320 319 318 318 319 319 319 320 319 318 318 319 320 320 318 314 308 306 308 314 317 318 316 314 313 311 310 310 310 310 310 310 310 311 313
325 324 324 324 325 325 324 322 321 322 324 325 325 324 323 322 322 321 321 320 319 319 320 322 322 322 320 319 320 320 319 319 319 319 319 319 319 319 319 319 320 321 320 318 314 310 308 309 310 311 312 311 311 311 312 314 315 315 316 316 317 319 320
Wind_Speed
8 9 9 9 9 9 11 17 20 21 23 24 26 27 28 28 28 28 29 30 30 30 29 29 28 28 27 25 22 20 20 20 21 21 21 21 20 19 19 19 18 17 16 16 15 14 13 12 12 12 11 10 10 9 9 9 9 8 7 7 6 7 7
8 9 9 9 9 9 12 18 21 22 23 25 26 27 28 28 29 29 30 31 31 31 30 29 29 29 28 26 23 21 21 20 19 20 21 21 20 19 19 18 18 18 17 16 16 15 14 13 13 13 12 11 11 10 9 9 9 9 8 8 8 8 8
8 9 10 11 11 10 12 17 20 22 24 25 25 26 28 29 31 32 32 31 32 31 30 29 29 28 28 26 24 22 22 20 19 19 20 20 20 19 18 17 17 17 18 17 16 16 14 14 14 13 12 12 11 10 10 10 10 10 10 10 10 10 10
10 10 11 12 12 11 13 17 20 22 24 26 28 29 30 32 33 33 33 32 32 31 30 30 29 29 28 27 25 24 22 21 19 18 18 18 18 18 17 17 17 17 18 18 16 16 15 15 14 13 13 12 12 11 11 10 10 11 11 11 11 11 11
10 10 9 10 10 10 12 16 21 23 25 27 28 30 31 32 32 31 31 32 31 31 31 30 29 28 28 27 26 25 23 22 21 19 18 17 17 17 17 18 17 17 17 16 15 15 15 14 14 14 14 13 13 12 12 11 11 11 10 10 10 11 11
10 10 9 9 10 10 11 17 23 25 27 28 29 30 30 30 29 29 30 30 30 30 29 29 29 28 28 28 27 26 24 23 22 21 20 18 17 17 18 18 18 18 17 16 15 15 14 14 14 14 14 14 14 13 12 12 11 11 11 10 11 10 10
9 9 10 10 10 10 12 18 23 26 28 29 29 29 29 29 29 29 29 29 29 29 28 28 29 28 28 28 28 27 25 24 23 22 21 20 18 18 18 18 18 18 17 16 15 15 14 14 14 14 14 14 14 13 13 12 12 12 12 12 11 11 10
11 10 10 10 11 10 12 17 22 25 26 26 25 26 27 28 29 28 28 29 29 29 29 29 29 29 29 28 28 27 26 24 23 22 22 21 20 19 18 17 18 17 17 16 15 15 14 14 13 14 14 14 14 14 13 13 13 12 12 12 12 12 11
9 10 10 11 11 10 13 19 22 23 24 24 24 24 24 25 26 28 29 30 29 29 30 30 30 30 30 29 28 28 26 25 23 22 22 21 21 20 19 18 17 16 16 16 15 14 14 13 14 14 15 15 15 15 14 14 13 13 13 13 13 13 12
8 8 9 9 9 9 12 17 19 20 22 23 24 24 24 24 25 25 26 27 28 30 31 31 30 30 30 29 29 28 26 25 24 23 22 22 22 21 20 19 18 16 16 16 15 15 15 14 15 15 15 15 15 15 15 15 14 14 14 14 14 14 13
6 7 8 8 8 8 9 12 15 18 21 24 26 26 26 27 27 26 26 26 27 28 29 29 30 30 30 30 28 27 27 26 25 24 23 23 22 21 21 20 19 17 17 17 16 16 16 16 16 16 16 16 15 15 16 15 15 15 15 15 15 15 14
4 5 6 7 7 7 8 10 13 17 21 23 25 27 28 28 29 29 29 28 27 27 26 26 27 27 28 28 27 27 27 26 26 25 24 23 21 20 20 21 20 19 18 18 18 17 17 17 17 18 17 17 16 16 16 16 16 17 17 16 16 16 16
2 3 4 5 5 5 6 6 8 13 19 23 25 27 29 29 30 31 30 28 28 28 26 24 24 25 26 26 26 27 27 27 27 25 24 23 21 19 19 20 20 20 20 20 19 19 19 19 19 19 19 19 18 18 18 18 18 19 19 18 18 18 18
3 2 3 4 4 4 4 3 4 6 11 17 21 25 27 28 29 31 31 31 31 31 31 29 27 27 27 27 27 28 28 28 26 25 23 22 21 19 19 19 19 20 20 20 20 20 20 20 20 20 20 21 20 20 19 19 20 20 20 20 20 20 20
4 4 2 3 4 3 3 3 3 4 6 9 14 19 22 23 25 26 28 29 30 31 31 32 31 30 29 28 28 29 29 28 26 24 22 22 21 20 19 19 20 19 19 19 19 19 18 18 18 19 20 20 20 19 19 20 20 21 21 22 22 22 21
4 2 1 2 3 3 4 4 4 6 8 8 10 14 17 20 21 23 25 27 28 29 29 30 30 30 30 30 30 30 29 27 25 23 22 22 21 20 20 20 19 20 20 20 20 19 17 16 16 17 18 18 19 19 19 20 20 20 21 22 23 23 22
4 4 3 2 3 4 4 5 6 8 10 12 13 13 15 17 20 22 23 25 26 28 28 29 29 29 30 29 29 28 27 26 25 23 23 23 22 21 21 20 20 20 20 21 20 19 16 15 15 15 14 15 15 16 17 18 19 20 21 22 22 23 22
6 6 5 5 4 4 5 5 6 7 9 11 12 13 14 16 18 21 23 24 23 23 24 26 27 27 25 22 22 24 24 23 22 21 20 20 20 20 21 21 21 21 21 22 21 19 17 15 14 13 13 13 13 13 13 14 15 16 18 20 20 21 21
7 6 5 5 5 5 5 5 6 8 10 10 11 12 14 16 19 21 22 22 22 21 21 21 20 21 21 17 17 20 20 19 18 17 17 17 16 17 18 19 20 19 18 17 15 13 11 10 9 10 11 11 11 12 12 12 13 13 13 16 18 19 20
5 5 4 4 4 4 4 6 8 9 12 14 14 14 13 15 16 16 16 18 20 21 22 20 17 16 18 17 16 15 15 16 15 14 14 13 13 14 14 16 15 13 10 8 7 7 8 10 12 11 11 10 10 10 10 10 11 12 12 13 16 18 19
6 7 7 6 6 6 6 8 10 10 10 12 14 13 11 11 12 12 13 16 18 18 18 18 15 14 15 15 13 12 12 12 12 12 12 11 11 11 10 8 5 4 5 6 7 10 14 16 15 9 6 6 6 8 10 11 11 12 13 14 15 16 17
7 8 7 6 7 7 7 8 9 10 9 10 13 14 13 13 14 13 14 16 17 16 16 16 14 12 12 12 10 9 9 8 7 7 7 8 8 8 7 6 6 6 3 6 5 4 7 9 8 7 7 9 9 9 11 13 13 13 14 14 15 15 15
9 9 8 9 9 9 8 9 9 9 10 10 12 14 15 16 16 16 15 16 16 16 15 15 14 13 12 11 10 8 8 8 6 4 2 3 5 6 5 4 4 3 5 8 7 6 9 10 9 10 12 14 15 14 14 14 14 14 14 14 14 14 14
11 11 11 11 11 11 12 11 11 12 13 14 13 11 12 14 16 19 19 19 20 19 17 15 14 14 12 11 9 8 7 6 5 4 3 3 3 1 1 1 2 3 2 3 5 8 12 13 11 8 7 8 10 12 12 13 14 14 15 15 16 16 17
11 13 14 14 14 14 15 15 15 15 16 16 13 10 11 13 16 18 17 16 18 19 18 17 16 14 13 11 10 9 9 9 8 7 4 2 1 3 5 4 2 3 4 2 1 3 7 9 7 5 5 5 6 7 8 10 11 13 14 15 16 18 19
10 13 14 14 15 15 15 16 17 17 17 16 12 10 12 15 18 20 18 18 18 18 16 15 16 17 16 14 13 11 10 10 10 9 8 5 4 5 5 5 4 4 4 2 1 3 4 4 3 3 2 1 3 4 5 6 8 9 10 10 11 12 13
14 15 15 15 15 16 17 17 17 18 17 15 13 12 14 18 21 22 21 22 22 21 18 18 18 18 17 17 16 15 14 13 12 10 10 9 7 6 6 6 5 4 3 3 3 2 2 3 4 5 5 3 2 1 3 4 5 6 7 7 7 8 8
14 14 16 17 16 17 17 16 16 18 17 16 15 15 17 21 24 24 23 23 21 18 18 19 18 18 19 19 18 17 16 14 13 12 12 11 9 9 9 8 7 5 5 6 7 7 6 6 7 8 8 6 5 6 7 7 8 8 9 10 9 9 9
11 11 13 16 17 17 17 16 17 18 18 17 17 18 19 22 24 24 24 23 19 16 18 19 18 17 18 19 19 18 17 15 14 13 13 11 10 11 11 9 8 7 7 7 8 9 9 8 8 9 9 8 7 7 8 9 9 9 10 10 10 9 9
10 11 12 14 15 16 17 17 18 18 18 18 19 19 21 23 23 23 22 20 16 15 16 16 15 15 16 17 17 17 16 15 14 13 13 12 11 11 11 10 8 8 7 7 7 8 10 10 9 9 9 8 8 7 7 7 7 8 9 9 9 9 9
12 12 12 13 14 15 16 17 18 18 18 18 18 19 20 21 22 21 19 16 15 15 15 15 15 16 17 17 17 16 15 14 13 12 11 11 11 12 12 10 8 6 5 5 5 6 6 7 8 8 7 7 7 6 5 4 5 7 9 9 10 10 11
13 14 14 13 13 14 15 16 17 18 18 17 17 17 17 18 20 19 17 15 14 14 14 14 15 16 16 15 15 14 14 13 13 12 11 10 10 11 11 10 8 6 4 3 3 3 3 3 4 5 5 5 4 4 3 3 5 7 8 10 10 11 12
12 14 14 13 13 14 15 16 16 16 17 17 15 15 16 17 17 17 15 14 13 12 12 13 15 15 14 14 13 12 11 11 11 11 10 10 10 10 10 9 8 7 5 3 2 1 1 2 1 1 1 1 3 3 3 4 6 9 11 11 12 12 14
13 15 14 13 13 14 14 15 16 16 16 16 14 14 15 16 16 15 15 15 14 12 12 13 13 13 13 13 12 12 11 11 11 10 10 10 9 9 9 9 8 7 6 5 3 1 1 1 2 2 3 3 3 4 4 6 9 11 13 14 15 15 15
15 15 15 14 14 14 15 15 15 15 15 15 14 14 15 15 15 14 14 14 13 12 13 12 11 11 12 12 12 11 11 11 10 10 9 9 8 7 7 7 7 6 5 5 4 3 2 2 2 2 3 4 4 4 5 7 10 12 14 15 15 15 14
14 14 14 15 15 15 16 16 15 15 15 14 13 14 14 14 13 13 13 12 11 11 12 13 11 11 11 11 11 10 10 9 9 8 7 7 7 7 6 6 6 6 5 4 4 3 3 2 1 2 2 3 4 6 7 8 10 11 12 13 12 12 12
13 12 12 12 13 14 14 14 13 13 13 12 12 12 12 12 12 12 13 12 10 9 10 11 11 11 9 8 8 8 7 7 6 6 5 5 5 5 5 5 5 6 6 6 5 4 3 3 2 3 4 5 5 6 6 7 8 8 9 10 10 10 10
12 12 10 10 11 12 12 12 11 11 11 10 9 9 10 10 10 10 11 12 12 11 9 9 9 8 6 5 5 5 5 6 5 5 5 5 4 4 4 5 5 5 5 6 5 4 3 3 3 4 5 5 6 6 7 7 7 7 8 9 10 9 8
Wind_Direction
173 181 186 187 186 185 186 185 183 183 184 186 189 191 191 193 195 196 198 200 202 204 206 210 212 213 214 217 221 226 228 230 232 234 235 235 235 234 233 233 237 241 241 240 240 239 242 245 246 250 254 254 250 245 243 244 251 259 263 266 267 270 271
177 183 185 186 186 187 190 189 185 184 186 189 191 191 192 194 195 197 199 201 203 205 207 209 211 212 214 217 222 227 229 231 234 235 235 233 233 233 234 237 241 244 245 245 245 245 246 249 252 255 257 256 251 246 246 248 252 257 260 262 264 268 268
183 185 184 186 188 187 189 189 188 188 188 190 191 193 194 196 198 199 200 201 202 204 207 209 211 211 212 216 221 226 229 232 234 235 234 233 233 233 235 240 245 246 247 249 249 248 249 252 255 257 256 254 249 246 250 253 254 256 261 263 265 264 263
184 189 187 188 188 185 187 188 190 191 192 193 193 195 198 199 201 202 202 202 202 203 206 209 211 212 213 217 220 223 227 230 233 234 235 235 237 237 240 245 247 246 247 250 250 250 252 254 254 256 256 252 249 250 253 255 256 258 261 262 265 264 261
185 188 186 186 185 185 188 189 191 193 194 196 197 198 201 202 202 202 203 204 204 206 209 211 212 213 215 218 220 223 227 229 231 232 233 236 240 242 245 248 249 247 246 248 248 249 253 255 254 256 256 253 252 254 255 257 259 259 259 260 263 263 259
184 182 181 184 184 187 190 190 194 195 195 197 198 200 202 202 202 203 204 204 206 208 210 212 213 215 216 218 220 224 226 228 230 231 232 236 239 243 246 248 250 248 247 247 247 250 253 253 253 254 254 253 254 256 256 255 257 256 256 261 263 262 259
181 178 181 184 184 188 192 193 195 197 198 199 198 200 201 201 203 205 205 205 206 208 209 211 213 215 217 219 220 223 226 228 230 231 232 234 237 241 244 247 248 248 248 250 250 251 252 252 252 253 253 253 254 257 255 253 255 253 253 259 263 261 259
181 176 180 184 185 187 191 194 195 196 198 199 198 199 200 201 202 203 205 207 207 208 209 211 214 216 218 219 220 222 226 228 230 231 231 233 235 237 239 242 244 246 248 249 248 249 252 252 253 254 254 255 256 256 255 253 254 252 251 257 261 260 260
176 175 179 182 183 186 189 193 194 193 193 194 196 198 200 201 201 203 206 208 207 208 211 213 215 217 218 218 220 222 225 227 229 230 231 233 235 235 236 237 240 243 246 246 245 249 254 255 256 257 258 261 260 257 256 255 256 255 254 257 260 261 262
165 171 175 177 180 182 185 187 188 187 187 188 191 194 196 198 202 205 207 208 209 210 212 213 214 215 216 217 220 222 223 225 226 227 229 232 235 236 238 238 240 242 242 242 245 250 255 257 258 260 261 264 264 261 259 259 259 259 258 257 258 260 262
157 167 168 172 175 172 174 178 179 183 184 186 187 189 191 194 198 202 205 207 210 212 213 213 212 213 214 215 217 219 221 224 225 226 227 230 235 240 242 242 242 243 241 241 245 251 255 257 259 260 261 263 265 264 264 263 263 263 260 258 258 261 264
154 166 164 168 170 170 176 178 178 181 182 184 185 186 187 191 194 197 200 203 206 210 213 213 212 211 212 213 213 215 219 223 225 227 228 230 234 240 245 245 245 244 242 241 245 249 251 255 258 260 262 264 267 268 269 268 266 264 262 261 263 265 268
132 152 155 156 156 165 179 185 186 183 182 182 183 185 187 189 191 193 194 197 201 205 208 210 212 212 211 211 212 215 218 222 225 229 230 232 235 240 246 248 247 246 244 244 247 249 252 257 260 263 265 267 269 272 274 272 268 265 263 263 264 267 270
54 73 118 134 141 152 161 172 186 189 190 186 181 181 185 188 191 192 191 194 198 201 203 205 208 210 211 211 212 215 220 222 226 229 232 234 237 241 246 247 247 247 247 248 249 252 257 262 265 267 269 270 272 274 275 274 270 267 266 266 267 268 269
59 42 63 130 134 122 119 133 145 159 187 191 180 177 181 185 189 191 191 193 196 199 201 202 203 205 209 210 211 216 220 223 226 229 232 234 236 239 243 245 246 247 249 249 251 257 265 268 269 270 271 272 272 273 272 273 272 272 272 271 271 271 271
91 75 65 140 137 126 120 123 134 143 158 179 185 179 178 182 186 188 190 192 194 196 199 199 199 201 205 209 213 217 220 221 225 229 231 233 235 236 238 240 243 246 248 250 255 263 268 270 269 271 273 273 272 272 270 271 273 276 277 275 273 272 272
141 148 156 151 141 137 131 128 136 146 159 174 185 185 182 184 186 187 190 193 195 196 197 197 198 200 203 207 210 214 216 219 222 227 230 234 237 238 239 242 245 246 247 250 256 263 264 264 265 266 269 272 272 273 274 274 275 275 275 275 274 271 269
147 156 162 156 151 149 149 149 150 154 162 170 178 183 186 187 188 190 193 193 194 194 192 193 196 196 198 205 211 211 211 215 219 224 230 233 237 242 245 247 247 246 247 250 253 254 249 247 252 255 260 265 268 272 277 280 281 281 279 279 277 272 267
125 138 148 151 156 158 151 137 130 144 156 162 170 181 188 193 195 198 199 194 192 189 184 185 189 188 190 205 220 214 208 211 216 221 226 230 234 240 244 246 246 244 244 245 246 245 241 241 247 252 255 260 266 272 276 281 284 286 287 284 279 272 266
88 89 80 90 103 99 100 107 121 147 163 168 173 179 186 191 192 192 190 185 182 180 179 181 185 185 188 203 218 214 205 206 210 213 219 221 223 228 233 236 236 229 219 217 221 226 233 239 242 246 253 260 269 276 278 279 279 278 278 277 273 268 263
64 66 62 66 75 78 90 110 125 142 157 169 177 178 176 178 178 170 160 158 161 164 168 173 176 178 182 189 200 205 200 201 208 212 215 215 213 218 222 218 200 138 152 201 231 236 237 240 240 242 257 271 284 296 295 290 284 280 277 273 269 265 261
63 66 68 66 68 73 83 100 117 129 138 155 170 174 174 174 172 162 149 149 154 157 160 164 164 169 177 176 178 186 188 192 205 210 211 216 215 212 198 169 121 87 136 210 235 265 265 259 252 246 250 252 256 274 288 290 284 279 277 275 273 270 267
61 60 56 53 57 68 79 92 105 111 113 120 138 160 175 175 168 159 151 152 158 161 164 166 163 166 176 177 171 167 169 180 186 176 187 235 231 219 206 186 186 219 234 228 236 264 277 278 275 268 265 263 261 262 269 276 275 272 272 273 274 276 276
58 58 52 49 51 51 55 66 77 86 96 98 102 125 150 155 153 150 146 147 153 157 159 161 161 162 163 159 150 136 129 140 154 168 212 258 266 247 28 1 278 284 310 275 259 265 270 276 283 283 270 259 256 257 259 265 270 272 275 276 280 285 288
57 57 56 57 59 57 55 62 69 75 82 82 81 95 113 121 127 125 119 122 133 138 138 139 141 141 136 127 121 117 108 102 104 117 141 163 59 65 71 64 46 43 51 51 274 254 258 265 266 249 229 229 241 254 263 270 277 282 285 286 287 290 291
71 65 61 57 60 67 72 75 75 73 69 69 75 88 97 102 102 95 86 87 94 94 92 99 107 111 110 107 104 103 99 97 104 112 117 114 94 76 75 72 65 68 77 94 177 211 219 227 222 198 181 240 270 271 279 289 299 305 308 308 306 305 305
81 78 73 67 63 67 72 73 73 72 70 73 84 90 93 95 90 84 84 85 85 84 86 91 96 98 100 100 98 97 96 98 104 108 102 95 89 83 80 74 70 75 84 91 106 135 135 119 114 107 98 92 86 56 37 20 10 6 5 2 356 352 347
84 83 84 82 77 73 74 73 74 74 74 78 87 90 93 93 85 80 81 79 76 84 93 94 93 93 95 95 95 94 95 95 95 91 85 81 79 80 81 77 72 69 63 74 91 100 101 107 113 114 114 113 100 81 71 64 57 51 48 42 35 30 23
84 84 85 86 85 84 84 79 75 75 76 80 86 88 90 90 84 80 80 78 76 84 90 89 87 87 87 88 88 87 87 87 84 79 76 75 75 78 80 80 78 72 59 62 84 102 109 116 122 122 121 115 101 91 86 79 69 58 51 45 39 35 31
91 88 86 88 92 95 93 86 81 79 80 83 87 88 88 88 83 78 77 77 79 84 87 88 87 84 82 82 82 83 83 82 79 74 70 70 69 72 75 76 74 75 71 69 83 102 113 120 127 127 121 113 105 102 100 87 62 43 34 29 25 19 14
100 100 98 96 99 99 95 91 90 88 86 85 86 86 88 89 87 83 79 80 83 85 88 92 92 89 87 83 80 80 79 76 73 68 66 66 65 65 66 66 66 72 77 73 70 82 102 119 130 129 119 113 110 106 100 76 40 25 17 11 6 3 0
105 109 109 106 106 106 103 99 96 92 88 85 85 85 84 84 84 82 81 82 81 82 86 91 92 90 86 81 77 74 69 67 66 65 65 65 62 61 61 59 59 65 73 72 63 62 75 97 122 129 120 110 102 88 70 33 8 359 355 352 350 348 348
108 111 114 115 115 115 113 106 98 92 87 83 81 81 80 77 76 76 76 74 71 73 80 83 84 83 78 74 71 66 62 63 64 63 63 62 58 58 60 57 53 55 60 69 82 105 59 29 28 158 156 81 52 35 14 351 340 337 337 337 336 336 337
113 112 116 121 121 120 117 110 103 97 92 87 83 81 80 76 72 70 68 65 62 66 73 75 74 72 69 65 64 62 60 62 60 56 55 56 54 55 55 50 45 43 44 45 43 37 294 313 316 291 288 319 349 350 340 331 328 329 329 328 329 331 330
115 114 117 122 122 121 117 112 108 102 95 91 90 89 86 81 74 66 60 56 52 54 60 63 62 60 56 53 55 56 54 53 52 48 46 46 44 40 37 35 33 31 29 26 26 28 12 320 303 295 297 308 321 325 326 324 322 324 325 325 329 332 329
111 108 110 115 116 114 111 110 109 103 95 91 91 91 87 81 72 62 54 49 46 48 53 55 55 55 56 55 55 54 50 47 45 41 35 32 29 29 32 32 30 28 25 14 1 6 11 4 356 339 322 320 320 321 324 325 324 326 327 328 332 334 332
117 109 105 106 104 101 100 101 101 98 93 89 86 84 81 75 69 62 55 51 50 51 53 55 56 58 60 58 55 52 47 41 36 28 21 17 20 27 31 27 18 18 25 23 12 1 358 354 344 336 332 329 331 337 342 344 344 341 338 339 341 340 338
124 122 118 113 104 97 94 95 94 93 92 88 82 77 71 64 61 57 50 46 44 46 48 49 52 57 60 56 52 49 40 31 24 17 11 7 8 8 5 359 352 351 4 17 20 20 18 10 358 352 353 358 8 18 22 17 12 6 356 352 352 351 354